sat.trackr.live / text

‹ back to catalog

STARLINK-32868

NORAD 62854 · 2025-022A

PAYLOAD ACTIVE UNKNOWN

§ Identity

Operator
Country
US
Launch date
2025-02-01
Launch site
AFWTR
Launch vehicle
Mass (kg)
RCS (m²)

Purposes: comms

External: N2YO · Heavens-Above · Gunter

§ Orbital elements

Epoch: 2026-05-25T03:32:51.077760Z

Period
93.85 min
Inclination
53.1603°
Eccentricity
0.0001156
Mean motion
15.34406896 rev/d
Perigee alt
461.9 km
Apogee alt
463.5 km
Semi-major
6,840.8 km
B*
6.3227e-4
RAAN
133.2370°
Arg perigee
119.6598°
Mean anomaly
240.4520°
Rev number
7,443

§ Raw data

STARLINK-328681 62854U 25022A   26145.14781340  .00021051  00000+0  63227-3 0  99932 62854  53.1603 133.2370 0001156 119.6598 240.4520 15.34406896 74437

JSON: /api/v1/satellites/62854 · /tle

For live sub-satellite position, see the globe view (requires WebGL).

§ Visibility from observer

Set your observer location to see the next 7 days of passes ≥ 10°. The values pass through the URL so the page stays shareable.

No JS? Fill the form by hand. The geolocation button needs JavaScript.